Weather History for Miami, FL

Change the Weather History Date:

Saturday, February 15, 2014

  Actual Average Record
Temperature  
Mean Temperature 68 °F 70 °F  
Max Temperature 79 °F 78 °F 86 °F (1939)
Min Temperature 56 °F 62 °F 36 °F (1943)
Degree Days  
Heating Degree Days 0 1  
Month to date heating degree days 4 15  
Since 1 July heating degree days 61 105  
Cooling Degree Days 3 6  
Month to date cooling degree days 145 84  
Year to date cooling degree days 297 235  
Growing Degree Days 17 (Base 50)    
Moisture  
Dew Point 55 °F    
Average Humidity 66    
Maximum Humidity 86    
Minimum Humidity 45    
Precipitation  
Precipitation 0.00 in 0.09 in 2.02 in (1969)
Month to date precipitation 0.94 1.22  
Year to date precipitation 2.85 2.84  
Snow  
Snow 0.00 in - - ()
Month to date snowfall 0.0  
Since 1 July snowfall 0.0  
Snow Depth 0.00 in    
Sea Level Pressure  
Sea Level Pressure 30.06 in    
Wind  
Wind Speed 6 mph (WSW)    
Max Wind Speed 18 mph    
Max Gust Speed 25 mph    
Visibility 10 miles    
Events      
T = Trace of Precipitation, MM = Missing Value Source: NWS Daily Summary

Daily Weather History Graph

Daily Weather History Graph

Search for Another Location

Airport:

Trip Planner

Search our weather history database for the weather conditions in past years. The results will help you decide how hot, cold, wet, or windy it might be!

Date:

Astronomy

Feb. 15, 2014 Rise Set
Actual Time 6:56 AM EST 6:14 PM EST
Civil Twilight 6:32 AM EST 6:38 PM EST
Nautical Twilight 6:05 AM EST 7:05 PM EST
Astronomical Twilight 5:39 AM EST 7:32 PM EST
Moon 7:02 PM EST (2/15) 7:02 AM EST (2/15)
Length of Visible Light 12h 05m
Length of Day
11h 18m
Full, 100% of the Moon is Illuminated
Feb 15
Full
Feb 22
Last Quarter
Mar 1
New
Mar 8
First Quarter
Mar 16
Full

Hourly Weather History & Observations

Time (EST) Temp. Dew Point Humidity Pressure Visibility Wind Dir Wind Speed Gust Speed Precip Events Conditions
12:53 AM 60.1 °F 51.1 °F 72% 30.02 in 10.0 mi SW 4.6 mph - N/A   Mostly Cloudy
1:53 AM 59.0 °F 51.1 °F 75% 30.02 in 10.0 mi WSW 5.8 mph - N/A   Partly Cloudy
2:53 AM 59.0 °F 52.0 °F 78% 29.99 in 10.0 mi SSW 4.6 mph - N/A   Partly Cloudy
3:53 AM 57.0 °F 51.1 °F 81% 29.99 in 10.0 mi South 3.5 mph - N/A   Partly Cloudy
4:53 AM 55.9 °F 51.1 °F 84% 30.01 in 10.0 mi Calm Calm - N/A   Partly Cloudy
5:53 AM 57.0 °F 52.0 °F 83% 30.03 in 10.0 mi Calm Calm - N/A   Partly Cloudy
6:53 AM 57.0 °F 52.0 °F 83% 30.06 in 10.0 mi Calm Calm - N/A   Scattered Clouds
7:53 AM 61.0 °F 55.9 °F 83% 30.06 in 10.0 mi South 3.5 mph - N/A   Partly Cloudy
8:53 AM 68.0 °F 59.0 °F 73% 30.09 in 10.0 mi SSW 8.1 mph - N/A   Partly Cloudy
9:53 AM 72.0 °F 59.0 °F 64% 30.09 in 10.0 mi SW 8.1 mph 18.4 mph N/A   Partly Cloudy
10:53 AM 73.9 °F 59.0 °F 59% 30.08 in 10.0 mi WSW 9.2 mph 19.6 mph N/A   Scattered Clouds
11:53 AM 73.9 °F 59.0 °F 59% 30.06 in 10.0 mi West 12.7 mph - N/A   Mostly Cloudy
12:53 PM 75.9 °F 59.0 °F 56% 30.04 in 10.0 mi West 11.5 mph 19.6 mph N/A   Mostly Cloudy
1:53 PM 77.0 °F 60.1 °F 56% 30.02 in 10.0 mi WSW 13.8 mph 19.6 mph N/A   Mostly Cloudy
2:53 PM 77.0 °F 57.0 °F 50% 30.02 in 10.0 mi WSW 8.1 mph - N/A   Scattered Clouds
3:53 PM 79.0 °F 55.0 °F 44% 30.01 in 10.0 mi WSW 13.8 mph 18.4 mph N/A   Scattered Clouds
4:53 PM 78.1 °F 57.9 °F 50% 30.03 in 10.0 mi West 10.4 mph 16.1 mph N/A   Scattered Clouds
5:53 PM 75.9 °F 53.1 °F 45% 30.05 in 10.0 mi WNW 6.9 mph - N/A   Partly Cloudy
6:53 PM 73.0 °F 54.0 °F 51% 30.08 in 10.0 mi WNW 5.8 mph - N/A   Clear
7:53 PM 70.0 °F 55.0 °F 59% 30.10 in 10.0 mi WNW 5.8 mph - N/A   Clear
8:53 PM 68.0 °F 55.9 °F 65% 30.12 in 10.0 mi WNW 3.5 mph - N/A   Clear
9:53 PM 66.0 °F 55.9 °F 70% 30.13 in 10.0 mi West 3.5 mph - N/A   Clear
10:53 PM 64.9 °F 55.0 °F 70% 30.14 in 10.0 mi Variable 5.8 mph - N/A   Clear
11:53 PM 64.0 °F 46.9 °F 54% 30.14 in 10.0 mi NNW 4.6 mph - N/A   Clear